START_TIME,STEP,MOV.,A46,t_acc.,A13,t_acc.,M47,t_acc.,A17,t_acc.,A28,t_acc.,M38,t_acc.
1981-08-28 18:00:26.190 ,1,0,,0,0.,4.8,0.,4.8,,0,0.,4.8,0.,4.8
1981-08-28 18:00:30.990 ,1,0,,0,0.,4.8,0.,4.8,,0,0.,4.8,0.,4.8
1981-08-28 18:00:35.790 ,1,0,,0,1.,4.8,0.,4.8,,0,0.,4.8,0.,4.8
1981-08-28 18:00:40.590 ,1,0,,0,0.,4.8,0.,4.8,,0,0.,4.8,0.,4.8
1981-08-28 18:00:45.390 ,1,0,,0,0.,4.8,0.,4.8,,0,0.,4.8,0.,4.8
1981-08-28 18:00:50.190 ,2,0,,0,0.,4.8,0.,4.8,,0,0.,4.8,0.,4.8
1981-08-28 18:00:54.990 ,2,0,,0,0.,4.8,0.,4.8,,0,0.,4.8,0.,4.8
1981-08-28 18:00:59.790 ,2,0,,0,0.,4.8,0.,4.8,,0,0.,4.8,0.,4.8
1981-08-28 18:01:04.590 ,2,0,,0,0.,4.8,0.,4.8,,0,0.,4.8,0.,4.8
1981-08-28 18:01:09.390 ,2,0,,0,0.,4.8,0.,4.8,,0,0.,4.8,0.,4.8
1981-08-28 18:01:14.190 ,3,0,,0,0.,4.8,0.,4.8,,0,0.,4.8,0.,4.8
1981-08-28 18:01:18.990 ,3,0,,0,0.,4.8,0.,4.8,,0,0.,4.8,0.,4.8
1981-08-28 18:01:23.790 ,3,0,,0,1.,4.8,0.,4.8,,0,0.,4.8,0.,4.8
1981-08-28 18:01:28.590 ,3,0,,0,0.,4.8,0.,4.8,,0,0.,4.8,0.,4.8
1981-08-28 18:01:33.390 ,3,0,,0,0.,4.8,0.,4.8,,0,0.,4.8,0.,4.8
1981-08-28 18:01:38.190 ,4,0,,0,0.,4.8,0.,4.8,,0,0.,4.8,0.,4.8
1981-08-28 18:01:42.990 ,4,0,,0,0.,4.8,0.,4.8,,0,0.,4.8,0.,4.8
1981-08-28 18:01:47.790 ,4,0,,0,1.,4.8,0.,4.8,,0,0.,4.8,0.,4.8
1981-08-28 18:01:52.590 ,4,0,,0,1.,4.8,0.,4.8,,0,0.,4.8,0.,4.8
1981-08-28 18:01:57.390 ,4,0,,0,1.,4.8,0.,4.8,,0,0.,4.8,0.,4.8
1981-08-28 18:02:02.190 ,5,0,,0,0.,4.8,0.,4.8,,0,0.,4.8,0.,4.8
1981-08-28 18:02:06.990 ,5,0,,0,0.,4.8,0.,4.8,,0,0.,4.8,0.,4.8
1981-08-28 18:02:11.790 ,5,0,,0,0.,4.8,0.,4.8,,0,0.,4.8,0.,4.8
1981-08-28 18:02:16.590 ,5,0,,0,0.,4.8,0.,4.8,,0,0.,4.8,0.,4.8
1981-08-28 18:02:21.390 ,5,0,,0,0.,4.8,0.,4.8,,0,0.,4.8,0.,4.8
1981-08-28 18:02:26.190 ,6,0,,0,0.,4.8,0.,4.8,,0,0.,4.8,0.,4.8
1981-08-28 18:02:30.990 ,6,0,,0,0.,4.8,0.,4.8,,0,0.,4.8,0.,4.8
1981-08-28 18:02:35.790 ,6,0,,0,0.,4.8,0.,4.8,,0,0.,4.8,0.,4.8
1981-08-28 18:02:40.590 ,6,0,,0,1.,4.8,0.,4.8,,0,0.,4.8,0.,4.8
1981-08-28 18:02:45.390 ,6,0,,0,1.,4.8,0.,4.8,,0,0.,4.8,0.,4.8
1981-08-28 18:02:50.190 ,7,0,,0,1.,4.8,0.,4.8,,0,0.,4.8,0.,4.8
1981-08-28 18:02:54.990 ,7,0,,0,2.,4.8,0.,4.8,,0,0.,4.8,0.,4.8
1981-08-28 18:02:59.790 ,7,0,,0,2.,4.8,0.,4.8,,0,0.,4.8,0.,4.8
1981-08-28 18:03:04.590 ,7,0,,0,0.,4.8,0.,4.8,,0,0.,4.8,0.,4.8
1981-08-28 18:03:09.390 ,7,0,,0,0.,4.8,0.,4.8,,0,0.,4.8,0.,4.8
1981-08-28 18:03:14.190 ,7,0,,0,0.,4.8,0.,4.8,,0,0.,4.8,0.,4.8
1981-08-28 18:03:18.990 ,7,0,,0,0.,4.8,0.,4.8,,0,0.,4.8,0.,4.8
1981-08-28 18:03:23.790 ,7,0,,0,0.,4.8,0.,4.8,,0,0.,4.8,0.,4.8
1981-08-28 18:03:28.590 ,7,0,,0,7.,4.8,0.,4.8,,0,0.,4.8,0.,4.8
1981-08-28 18:03:33.390 ,7,0,,0,9.,4.8,0.,4.8,,0,0.,4.8,0.,4.8
1981-08-28 18:03:38.190 ,7,0,,0,8.,4.8,0.,4.8,,0,0.,4.8,0.,4.8
1981-08-28 18:03:42.990 ,7,0,,0,8.,4.8,0.,4.8,,0,0.,4.8,0.,4.8
1981-08-28 18:03:47.790 ,7,0,,0,18.,4.8,0.,4.8,,0,0.,4.8,0.,4.8
1981-08-28 18:03:52.590 ,7,0,,0,0.,4.8,0.,4.8,,0,1.,4.8,0.,4.8
1981-08-28 18:03:57.390 ,7,0,,0,0.,4.8,0.,4.8,,0,0.,4.8,0.,4.8
1981-08-28 18:04:02.190 ,6,0,,0,0.,4.8,0.,4.8,,0,0.,4.8,0.,4.8
1981-08-28 18:04:06.990 ,6,0,,0,0.,4.8,0.,4.8,,0,0.,4.8,0.,4.8
1981-08-28 18:04:11.790 ,6,0,,0,1.,4.8,0.,4.8,,0,0.,4.8,0.,4.8
1981-08-28 18:04:16.590 ,6,0,,0,1.,4.8,0.,4.8,,0,0.,4.8,0.,4.8
1981-08-28 18:04:21.390 ,6,0,,0,1.,4.8,0.,4.8,,0,0.,4.8,0.,4.8
1981-08-28 18:04:26.190 ,6,0,,0,0.,4.8,0.,4.8,,0,0.,4.8,0.,4.8
1981-08-28 18:04:30.990 ,6,0,,0,0.,4.8,0.,4.8,,0,0.,4.8,0.,4.8
1981-08-28 18:04:35.790 ,6,0,,0,0.,4.8,0.,4.8,,0,0.,4.8,0.,4.8
1981-08-28 18:04:40.590 ,6,0,,0,0.,4.8,0.,4.8,,0,0.,4.8,0.,4.8
1981-08-28 18:04:45.390 ,6,0,,0,0.,4.8,0.,4.8,,0,0.,4.8,0.,4.8
1981-08-28 18:04:50.190 ,5,0,,0,0.,4.8,0.,4.8,,0,0.,4.8,0.,4.8
1981-08-28 18:04:54.990 ,5,0,,0,0.,4.8,0.,4.8,,0,0.,4.8,0.,4.8
1981-08-28 18:04:59.790 ,5,0,,0,0.,4.8,0.,4.8,,0,0.,4.8,0.,4.8
1981-08-28 18:05:04.590 ,5,0,,0,1.,4.8,0.,4.8,,0,0.,4.8,0.,4.8
1981-08-28 18:05:09.390 ,5,0,,0,0.,4.8,0.,4.8,,0,0.,4.8,0.,4.8
1981-08-28 18:05:14.190 ,5,0,,0,0.,4.8,0.,4.8,,0,0.,4.8,0.,4.8
1981-08-28 18:05:18.990 ,5,0,,0,0.,4.8,0.,4.8,,0,0.,4.8,0.,4.8
1981-08-28 18:05:23.790 ,5,0,,0,1.,4.8,0.,4.8,,0,0.,4.8,0.,4.8
1981-08-28 18:05:28.590 ,5,0,,0,0.,4.8,0.,4.8,,0,0.,4.8,0.,4.8
1981-08-28 18:05:33.390 ,5,0,,0,0.,4.8,0.,4.8,,0,0.,4.8,0.,4.8
1981-08-28 18:05:38.190 ,4,0,,0,0.,4.8,0.,4.8,,0,0.,4.8,0.,4.8
1981-08-28 18:05:42.990 ,4,0,,0,0.,4.8,0.,4.8,,0,0.,4.8,0.,4.8
1981-08-28 18:05:47.790 ,4,0,,0,0.,4.8,0.,4.8,,0,0.,4.8,0.,4.8
1981-08-28 18:05:52.590 ,4,0,,0,1.,4.8,0.,4.8,,0,0.,4.8,0.,4.8
1981-08-28 18:05:57.390 ,4,0,,0,4.,4.8,0.,4.8,,0,0.,4.8,0.,4.8
1981-08-28 18:06:02.190 ,4,0,,0,1.,4.8,0.,4.8,,0,0.,4.8,0.,4.8
1981-08-28 18:06:06.990 ,4,0,,0,0.,4.8,0.,4.8,,0,0.,4.8,0.,4.8
1981-08-28 18:06:11.790 ,4,0,,0,2.,4.8,0.,4.8,,0,0.,4.8,0.,4.8
1981-08-28 18:06:16.590 ,4,0,,0,0.,4.8,0.,4.8,,0,0.,4.8,0.,4.8
1981-08-28 18:06:21.390 ,4,0,,0,0.,4.8,0.,4.8,,0,0.,4.8,0.,4.8
1981-08-28 18:06:26.190 ,3,0,,0,0.,4.8,0.,4.8,,0,1.,4.8,0.,4.8
1981-08-28 18:06:30.990 ,3,0,,0,0.,4.8,0.,4.8,,0,0.,4.8,0.,4.8
1981-08-28 18:06:35.790 ,3,0,,0,2.,4.8,0.,4.8,,0,0.,4.8,0.,4.8
1981-08-28 18:06:40.590 ,3,0,,0,4.,4.8,0.,4.8,,0,0.,4.8,0.,4.8
1981-08-28 18:06:45.390 ,3,0,,0,0.,4.8,0.,4.8,,0,0.,4.8,0.,4.8
1981-08-28 18:06:50.190 ,3,0,,0,0.,4.8,0.,4.8,,0,0.,4.8,0.,4.8
1981-08-28 18:06:54.990 ,3,0,,0,1.,4.8,0.,4.8,,0,0.,4.8,0.,4.8
1981-08-28 18:06:59.790 ,3,0,,0,0.,4.8,0.,4.8,,0,0.,4.8,0.,4.8
1981-08-28 18:07:04.590 ,3,0,,0,0.,4.8,0.,4.8,,0,0.,4.8,0.,4.8
1981-08-28 18:07:09.390 ,3,0,,0,0.,4.8,0.,4.8,,0,0.,4.8,0.,4.8
1981-08-28 18:07:14.190 ,2,0,,0,0.,4.8,0.,4.8,,0,0.,4.8,0.,4.8
1981-08-28 18:07:18.990 ,2,0,,0,0.,4.8,0.,4.8,,0,0.,4.8,0.,4.8
1981-08-28 18:07:23.790 ,2,0,,0,0.,4.8,0.,4.8,,0,0.,4.8,0.,4.8
1981-08-28 18:07:28.590 ,2,0,,0,2.,4.8,0.,4.8,,0,0.,4.8,0.,4.8
1981-08-28 18:07:33.390 ,2,0,,0,1.,4.8,0.,4.8,,0,0.,4.8,0.,4.8
1981-08-28 18:07:38.190 ,2,0,,0,1.,4.8,0.,4.8,,0,0.,4.8,0.,4.8
1981-08-28 18:07:42.990 ,2,0,,0,1.,4.8,0.,4.8,,0,0.,4.8,0.,4.8
1981-08-28 18:07:47.790 ,2,0,,0,1.,4.8,0.,4.8,,0,0.,4.8,0.,4.8
1981-08-28 18:07:52.590 ,2,0,,0,0.,4.8,0.,4.8,,0,0.,4.8,0.,4.8
1981-08-28 18:07:57.390 ,2,0,,0,0.,4.8,0.,4.8,,0,0.,4.8,0.,4.8
1981-08-28 18:08:02.190 ,1,0,,0,0.,4.8,0.,4.8,,0,0.,4.8,0.,4.8
1981-08-28 18:08:06.990 ,1,0,,0,0.,4.8,0.,4.8,,0,0.,4.8,0.,4.8
1981-08-28 18:08:11.790 ,1,0,,0,0.,4.8,0.,4.8,,0,0.,4.8,0.,4.8
1981-08-28 18:08:16.590 ,1,0,,0,0.,4.8,0.,4.8,,0,0.,4.8,0.,4.8
1981-08-28 18:08:21.390 ,1,0,,0,0.,4.8,0.,4.8,,0,0.,4.8,0.,4.8
1981-08-28 18:08:26.190 ,1,0,,0,2.,4.8,0.,4.8,,0,0.,4.8,0.,4.8
1981-08-28 18:08:30.990 ,1,0,,0,0.,4.8,0.,4.8,,0,0.,4.8,0.,4.8
1981-08-28 18:08:35.790 ,1,0,,0,0.,4.8,0.,4.8,,0,0.,4.8,0.,4.8
1981-08-28 18:08:40.590 ,1,0,,0,0.,4.8,0.,4.8,,0,0.,4.8,0.,4.8
1981-08-28 18:08:45.390 ,1,0,,0,0.,4.8,0.,4.8,,0,0.,4.8,0.,4.8
1981-08-28 18:08:50.190 ,0,0,,0,0.,4.8,0.,4.8,,0,0.,4.8,0.,4.8
1981-08-28 18:08:54.990 ,0,0,,0,0.,4.8,0.,4.8,,0,0.,4.8,0.,4.8
1981-08-28 18:08:59.790 ,0,0,,0,0.,4.8,0.,4.8,,0,0.,4.8,0.,4.8
1981-08-28 18:09:04.590 ,0,0,,0,0.,4.8,0.,4.8,,0,0.,4.8,0.,4.8
1981-08-28 18:09:09.390 ,0,0,,0,1.,4.8,0.,4.8,,0,0.,4.8,0.,4.8
1981-08-28 18:09:14.190 ,0,0,,0,0.,4.8,0.,4.8,,0,0.,4.8,0.,4.8
1981-08-28 18:09:18.990 ,0,0,,0,1.,4.8,0.,4.8,,0,0.,4.8,0.,4.8
1981-08-28 18:09:23.790 ,0,0,,0,1.,4.8,0.,4.8,,0,0.,4.8,0.,4.8
1981-08-28 18:09:28.590 ,0,0,,0,0.,4.8,0.,4.8,,0,0.,4.8,0.,4.8
1981-08-28 18:09:33.390 ,0,0,,0,0.,4.8,0.,4.8,,0,0.,4.8,0.,4.8
1981-08-28 18:09:38.190 ,0,0,,0,0.,4.8,0.,4.8,,0,0.,4.8,0.,4.8
1981-08-28 18:09:42.990 ,0,0,,0,0.,4.8,0.,4.8,,0,0.,4.8,0.,4.8
1981-08-28 18:09:47.790 ,0,0,,0,0.,4.8,0.,4.8,,0,0.,4.8,0.,4.8
1981-08-28 18:09:52.590 ,0,0,,0,0.,4.8,0.,4.8,,0,0.,4.8,0.,4.8
1981-08-28 18:09:57.390 ,0,0,,0,0.,4.8,0.,4.8,,0,0.,4.8,0.,4.8
1981-08-28 18:10:02.190 ,0,0,,0,0.,4.8,0.,4.8,,0,0.,4.8,0.,4.8
1981-08-28 18:10:06.990 ,0,0,,0,0.,4.8,0.,4.8,,0,0.,4.8,0.,4.8
1981-08-28 18:10:11.790 ,0,0,,0,0.,4.8,0.,4.8,,0,0.,4.8,0.,4.8
1981-08-28 18:10:16.590 ,0,0,,0,0.,4.8,0.,4.8,,0,0.,4.8,0.,4.8
1981-08-28 18:10:21.390 ,0,0,,0,0.,4.8,0.,4.8,,0,0.,4.8,0.,4.8
1981-08-28 18:10:26.190 ,1,0,,0,0.,4.8,0.,4.8,,0,0.,4.8,0.,4.8
1981-08-28 18:10:30.990 ,1,0,,0,0.,4.8,0.,4.8,,0,0.,4.8,0.,4.8
1981-08-28 18:10:35.790 ,1,0,,0,0.,4.8,0.,4.8,,0,0.,4.8,0.,4.8
1981-08-28 18:10:40.590 ,1,0,,0,0.,4.8,0.,4.8,,0,0.,4.8,0.,4.8
1981-08-28 18:10:45.390 ,1,0,,0,0.,4.8,0.,4.8,,0,0.,4.8,0.,4.8
1981-08-28 18:10:50.190 ,1,0,,0,0.,4.8,0.,4.8,,0,0.,4.8,0.,4.8
1981-08-28 18:10:54.990 ,1,0,,0,1.,4.8,0.,4.8,,0,0.,4.8,0.,4.8
1981-08-28 18:10:59.790 ,1,0,,0,0.,4.8,0.,4.8,,0,0.,4.8,0.,4.8
1981-08-28 18:11:04.590 ,1,0,,0,0.,4.8,0.,4.8,,0,0.,4.8,0.,4.8
1981-08-28 18:11:09.390 ,1,0,,0,0.,4.8,0.,4.8,,0,1.,4.8,0.,4.8
1981-08-28 18:11:14.190 ,2,0,,0,0.,4.8,0.,4.8,,0,0.,4.8,0.,4.8
1981-08-28 18:11:18.990 ,2,0,,0,0.,4.8,0.,4.8,,0,0.,4.8,0.,4.8
1981-08-28 18:11:23.790 ,2,0,,0,0.,4.8,0.,4.8,,0,0.,4.8,0.,4.8
1981-08-28 18:11:28.590 ,2,0,,0,0.,4.8,0.,4.8,,0,0.,4.8,0.,4.8
1981-08-28 18:11:33.390 ,2,0,,0,0.,4.8,0.,4.8,,0,0.,4.8,0.,4.8
1981-08-28 18:11:38.190 ,2,0,,0,0.,4.8,0.,4.8,,0,0.,4.8,0.,4.8
1981-08-28 18:11:42.990 ,2,0,,0,0.,4.8,0.,4.8,,0,0.,4.8,0.,4.8
1981-08-28 18:11:47.790 ,2,0,,0,1.,4.8,0.,4.8,,0,0.,4.8,0.,4.8
1981-08-28 18:11:52.590 ,2,0,,0,0.,4.8,0.,4.8,,0,0.,4.8,0.,4.8
1981-08-28 18:11:57.390 ,2,0,,0,0.,4.8,0.,4.8,,0,0.,4.8,0.,4.8
1981-08-28 18:12:02.190 ,3,0,,0,0.,4.8,0.,4.8,,0,0.,4.8,0.,4.8
1981-08-28 18:12:06.990 ,3,0,,0,0.,4.8,0.,4.8,,0,0.,4.8,0.,4.8
1981-08-28 18:12:11.790 ,3,0,,0,0.,4.8,0.,4.8,,0,0.,4.8,0.,4.8
1981-08-28 18:12:16.590 ,3,0,,0,2.,4.8,0.,4.8,,0,0.,4.8,0.,4.8
1981-08-28 18:12:21.390 ,3,0,,0,0.,4.8,0.,4.8,,0,0.,4.8,0.,4.8
1981-08-28 18:12:26.190 ,3,0,,0,0.,4.8,0.,4.8,,0,0.,4.8,0.,4.8
1981-08-28 18:12:30.990 ,3,0,,0,2.,4.8,0.,4.8,,0,0.,4.8,0.,4.8
1981-08-28 18:12:35.790 ,3,0,,0,0.,4.8,0.,4.8,,0,0.,4.8,0.,4.8
1981-08-28 18:12:40.590 ,3,0,,0,0.,4.8,0.,4.8,,0,0.,4.8,0.,4.8
1981-08-28 18:12:45.390 ,3,0,,0,0.,4.8,0.,4.8,,0,0.,4.8,0.,4.8
1981-08-28 18:12:50.190 ,4,0,,0,0.,4.8,0.,4.8,,0,0.,4.8,0.,4.8
1981-08-28 18:12:54.990 ,4,0,,0,0.,4.8,0.,4.8,,0,0.,4.8,0.,4.8
1981-08-28 18:12:59.790 ,4,0,,0,0.,4.8,1.,4.8,,0,0.,4.8,0.,4.8
1981-08-28 18:13:04.590 ,4,0,,0,0.,4.8,0.,4.8,,0,0.,4.8,0.,4.8
1981-08-28 18:13:09.390 ,4,0,,0,1.,4.8,0.,4.8,,0,0.,4.8,0.,4.8
1981-08-28 18:13:14.190 ,4,0,,0,0.,4.8,0.,4.8,,0,0.,4.8,0.,4.8
1981-08-28 18:13:18.990 ,4,0,,0,2.,4.8,0.,4.8,,0,0.,4.8,0.,4.8
1981-08-28 18:13:23.790 ,4,0,,0,0.,4.8,0.,4.8,,0,0.,4.8,0.,4.8
1981-08-28 18:13:28.590 ,4,0,,0,0.,4.8,0.,4.8,,0,0.,4.8,0.,4.8
1981-08-28 18:13:33.390 ,4,0,,0,0.,4.8,0.,4.8,,0,0.,4.8,0.,4.8
1981-08-28 18:13:38.190 ,5,0,,0,0.,4.8,0.,4.8,,0,0.,4.8,0.,4.8
1981-08-28 18:13:42.990 ,5,0,,0,0.,4.8,0.,4.8,,0,0.,4.8,0.,4.8
1981-08-28 18:13:47.790 ,5,0,,0,0.,4.8,0.,4.8,,0,0.,4.8,0.,4.8
1981-08-28 18:13:52.590 ,5,0,,0,2.,4.8,0.,4.8,,0,0.,4.8,0.,4.8
1981-08-28 18:13:57.390 ,5,0,,0,2.,4.8,0.,4.8,,0,0.,4.8,0.,4.8
1981-08-28 18:14:02.190 ,5,0,,0,2.,4.8,0.,4.8,,0,0.,4.8,0.,4.8
1981-08-28 18:14:06.990 ,5,0,,0,0.,4.8,0.,4.8,,0,0.,4.8,0.,4.8
1981-08-28 18:14:11.790 ,5,0,,0,0.,4.8,0.,4.8,,0,0.,4.8,0.,4.8
1981-08-28 18:14:16.590 ,5,0,,0,0.,4.8,0.,4.8,,0,0.,4.8,0.,4.8
1981-08-28 18:14:21.390 ,5,0,,0,0.,4.8,0.,4.8,,0,0.,4.8,0.,4.8
1981-08-28 18:14:26.190 ,6,0,,0,0.,4.8,0.,4.8,,0,0.,4.8,0.,4.8
1981-08-28 18:14:30.990 ,6,0,,0,0.,4.8,0.,4.8,,0,0.,4.8,0.,4.8
1981-08-28 18:14:35.790 ,6,0,,0,0.,4.8,0.,4.8,,0,0.,4.8,0.,4.8
1981-08-28 18:14:40.590 ,6,0,,0,0.,4.8,0.,4.8,,0,0.,4.8,0.,4.8
1981-08-28 18:14:45.390 ,6,0,,0,1.,4.8,0.,4.8,,0,0.,4.8,0.,4.8
1981-08-28 18:14:50.190 ,6,0,,0,2.,4.8,0.,4.8,,0,0.,4.8,0.,4.8
1981-08-28 18:14:54.990 ,6,0,,0,0.,4.8,0.,4.8,,0,0.,4.8,0.,4.8
1981-08-28 18:14:59.790 ,6,0,,0,2.,4.8,0.,4.8,,0,0.,4.8,0.,4.8
1981-08-28 18:15:04.590 ,6,0,,0,0.,4.8,0.,4.8,,0,0.,4.8,0.,4.8
1981-08-28 18:15:09.390 ,6,0,,0,0.,4.8,0.,4.8,,0,0.,4.8,0.,4.8
1981-08-28 18:15:14.190 ,7,0,,0,0.,4.8,0.,4.8,,0,0.,4.8,0.,4.8
1981-08-28 18:15:18.990 ,7,0,,0,0.,4.8,0.,4.8,,0,0.,4.8,0.,4.8
1981-08-28 18:15:23.790 ,7,0,,0,6.,4.8,0.,4.8,,0,0.,4.8,0.,4.8
1981-08-28 18:15:28.590 ,7,0,,0,7.,4.8,0.,4.8,,0,0.,4.8,0.,4.8
1981-08-28 18:15:33.390 ,7,0,,0,12.,4.8,0.,4.8,,0,0.,4.8,0.,4.8
1981-08-28 18:15:38.190 ,7,0,,0,4.,4.8,0.,4.8,,0,0.,4.8,0.,4.8
1981-08-28 18:15:42.990 ,7,0,,0,6.,4.8,0.,4.8,,0,0.,4.8,0.,4.8
1981-08-28 18:15:47.790 ,7,0,,0,7.,4.8,0.,4.8,,0,0.,4.8,0.,4.8
1981-08-28 18:15:52.590 ,7,0,,0,0.,4.8,0.,4.8,,0,0.,4.8,0.,4.8
1981-08-28 18:15:57.390 ,7,0,,0,1.,4.8,0.,4.8,,0,0.,4.8,0.,4.8
1981-08-28 18:16:02.190 ,7,0,,0,0.,4.8,0.,4.8,,0,0.,4.8,0.,4.8
1981-08-28 18:16:06.990 ,7,0,,0,0.,4.8,0.,4.8,,0,0.,4.8,0.,4.8
1981-08-28 18:16:11.790 ,7,0,,0,1.,4.8,0.,4.8,,0,0.,4.8,0.,4.8
1981-08-28 18:16:16.590 ,7,0,,0,11.,4.8,0.,4.8,,0,0.,4.8,0.,4.8
1981-08-28 18:16:21.390 ,7,0,,0,13.,4.8,0.,4.8,,0,0.,4.8,0.,4.8
1981-08-28 18:16:26.190 ,6,0,,0,11.,4.8,0.,4.8,,0,0.,4.8,0.,4.8
1981-08-28 18:16:30.990 ,6,0,,0,9.,4.8,0.,4.8,,0,0.,4.8,0.,4.8
1981-08-28 18:16:35.790 ,6,0,,0,1.,4.8,0.,4.8,,0,0.,4.8,0.,4.8
1981-08-28 18:16:40.590 ,6,0,,0,0.,4.8,0.,4.8,,0,0.,4.8,0.,4.8
1981-08-28 18:16:45.390 ,6,0,,0,0.,4.8,0.,4.8,,0,0.,4.8,0.,4.8
1981-08-28 18:16:50.190 ,5,0,,0,0.,4.8,0.,4.8,,0,0.,4.8,0.,4.8
1981-08-28 18:16:54.990 ,5,0,,0,1.,4.8,0.,4.8,,0,0.,4.8,0.,4.8
1981-08-28 18:16:59.790 ,5,0,,0,0.,4.8,0.,4.8,,0,0.,4.8,0.,4.8
1981-08-28 18:17:04.590 ,5,0,,0,1.,4.8,0.,4.8,,0,0.,4.8,0.,4.8
1981-08-28 18:17:09.390 ,5,0,,0,1.,4.8,0.,4.8,,0,0.,4.8,0.,4.8
1981-08-28 18:17:14.190 ,4,0,,0,0.,4.8,0.,4.8,,0,0.,4.8,0.,4.8
1981-08-28 18:17:18.990 ,4,0,,0,1.,4.8,0.,4.8,,0,0.,4.8,0.,4.8
1981-08-28 18:17:23.790 ,4,0,,0,0.,4.8,0.,4.8,,0,0.,4.8,0.,4.8
1981-08-28 18:17:28.590 ,4,0,,0,0.,4.8,0.,4.8,,0,0.,4.8,0.,4.8
1981-08-28 18:17:33.390 ,4,0,,0,0.,4.8,0.,4.8,,0,0.,4.8,0.,4.8
1981-08-28 18:17:38.190 ,3,0,,0,0.,4.8,0.,4.8,,0,0.,4.8,0.,4.8
1981-08-28 18:17:42.990 ,3,0,,0,0.,4.8,0.,4.8,,0,0.,4.8,0.,4.8
1981-08-28 18:17:47.790 ,3,0,,0,1.,4.8,0.,4.8,,0,0.,4.8,0.,4.8
1981-08-28 18:17:52.590 ,3,0,,0,0.,4.8,0.,4.8,,0,0.,4.8,0.,4.8
1981-08-28 18:17:57.390 ,3,0,,0,3.,4.8,0.,4.8,,0,0.,4.8,0.,4.8
1981-08-28 18:18:02.190 ,2,0,,0,2.,4.8,0.,4.8,,0,0.,4.8,0.,4.8
1981-08-28 18:18:06.990 ,2,0,,0,2.,4.8,0.,4.8,,0,0.,4.8,0.,4.8
1981-08-28 18:18:11.790 ,2,0,,0,0.,4.8,0.,4.8,,0,0.,4.8,0.,4.8
1981-08-28 18:18:16.590 ,2,0,,0,0.,4.8,0.,4.8,,0,0.,4.8,0.,4.8
1981-08-28 18:18:21.390 ,2,0,,0,0.,4.8,0.,4.8,,0,0.,4.8,0.,4.8
1981-08-28 18:18:26.190 ,1,0,,0,0.,4.8,0.,4.8,,0,0.,4.8,0.,4.8
1981-08-28 18:18:30.990 ,1,0,,0,0.,4.8,0.,4.8,,0,0.,4.8,0.,4.8
1981-08-28 18:18:35.790 ,1,0,,0,0.,4.8,0.,4.8,,0,0.,4.8,0.,4.8
1981-08-28 18:18:40.590 ,1,0,,0,0.,4.8,0.,4.8,,0,0.,4.8,0.,4.8
1981-08-28 18:18:45.390 ,1,0,,0,0.,4.8,0.,4.8,,0,0.,4.8,0.,4.8
1981-08-28 18:18:50.190 ,0,0,,0,0.,4.8,0.,4.8,,0,0.,4.8,0.,4.8
1981-08-28 18:18:54.990 ,0,0,,0,1.,4.8,0.,4.8,,0,0.,4.8,0.,4.8
1981-08-28 18:18:59.790 ,0,0,,0,1.,4.8,0.,4.8,,0,0.,4.8,0.,4.8
1981-08-28 18:19:04.590 ,0,0,,0,0.,4.8,0.,4.8,,0,0.,4.8,0.,4.8
1981-08-28 18:19:09.390 ,0,0,,0,1.,4.8,0.,4.8,,0,0.,4.8,0.,4.8
1981-08-28 18:19:14.190 ,0,0,,0,0.,4.8,0.,4.8,,0,0.,4.8,0.,4.8
1981-08-28 18:19:18.990 ,0,0,,0,0.,4.8,0.,4.8,,0,0.,4.8,0.,4.8
1981-08-28 18:19:23.790 ,0,0,,0,0.,4.8,0.,4.8,,0,0.,4.8,0.,4.8
1981-08-28 18:19:28.590 ,0,0,,0,1.,4.8,0.,4.8,,0,0.,4.8,0.,4.8
1981-08-28 18:19:33.390 ,0,0,,0,0.,4.8,0.,4.8,,0,0.,4.8,0.,4.8
1981-08-28 18:19:38.190 ,1,0,,0,0.,4.8,0.,4.8,,0,0.,4.8,0.,4.8
1981-08-28 18:19:42.990 ,1,0,,0,0.,4.8,0.,4.8,,0,0.,4.8,0.,4.8
1981-08-28 18:19:47.790 ,1,0,,0,0.,4.8,0.,4.8,,0,0.,4.8,0.,4.8
1981-08-28 18:19:52.590 ,1,0,,0,0.,4.8,0.,4.8,,0,0.,4.8,0.,4.8
1981-08-28 18:19:57.390 ,1,0,,0,0.,4.8,0.,4.8,,0,0.,4.8,0.,4.8
1981-08-28 18:20:02.190 ,2,0,,0,0.,4.8,0.,4.8,,0,0.,4.8,0.,4.8
1981-08-28 18:20:06.990 ,2,0,,0,0.,4.8,0.,4.8,,0,0.,4.8,0.,4.8
1981-08-28 18:20:11.790 ,2,0,,0,0.,4.8,0.,4.8,,0,0.,4.8,0.,4.8
1981-08-28 18:20:16.590 ,2,0,,0,2.,4.8,0.,4.8,,0,0.,4.8,0.,4.8
1981-08-28 18:20:21.390 ,2,0,,0,0.,4.8,0.,4.8,,0,0.,4.8,0.,4.8
1981-08-28 18:20:26.190 ,3,0,,0,0.,4.8,0.,4.8,,0,0.,4.8,0.,4.8
1981-08-28 18:20:30.990 ,3,0,,0,2.,4.8,0.,4.8,,0,0.,4.8,0.,4.8
1981-08-28 18:20:35.790 ,3,0,,0,0.,4.8,0.,4.8,,0,0.,4.8,0.,4.8
1981-08-28 18:20:40.590 ,3,0,,0,0.,4.8,0.,4.8,,0,0.,4.8,0.,4.8
1981-08-28 18:20:45.390 ,3,0,,0,0.,4.8,0.,4.8,,0,0.,4.8,0.,4.8
1981-08-28 18:20:50.190 ,4,0,,0,0.,4.8,0.,4.8,,0,0.,4.8,0.,4.8
1981-08-28 18:20:54.990 ,4,0,,0,0.,4.8,0.,4.8,,0,0.,4.8,0.,4.8
1981-08-28 18:20:59.790 ,4,0,,0,0.,4.8,0.,4.8,,0,0.,4.8,0.,4.8
1981-08-28 18:21:04.590 ,4,0,,0,0.,4.8,0.,4.8,,0,0.,4.8,0.,4.8
1981-08-28 18:21:09.390 ,4,0,,0,1.,4.8,0.,4.8,,0,0.,4.8,0.,4.8
1981-08-28 18:21:14.190 ,5,0,,0,2.,4.8,0.,4.8,,0,0.,4.8,0.,4.8
1981-08-28 18:21:18.990 ,5,0,,0,5.,4.8,0.,4.8,,0,0.,4.8,0.,4.8
1981-08-28 18:21:23.790 ,5,0,,0,1.,4.8,0.,4.8,,0,0.,4.8,0.,4.8
1981-08-28 18:21:28.590 ,5,0,,0,0.,4.8,0.,4.8,,0,0.,4.8,0.,4.8
1981-08-28 18:21:33.390 ,5,0,,0,0.,4.8,0.,4.8,,0,0.,4.8,0.,4.8
1981-08-28 18:21:38.190 ,6,0,,0,0.,4.8,0.,4.8,,0,0.,4.8,0.,4.8
1981-08-28 18:21:42.990 ,6,0,,0,0.,4.8,0.,4.8,,0,0.,4.8,0.,4.8
1981-08-28 18:21:47.790 ,6,0,,0,,0,,0,,0,,0,,0
1981-08-28 18:21:52.590 ,6,0,,0,0.,4.8,0.,4.8,,0,0.,4.8,0.,4.8
1981-08-28 18:21:57.390 ,6,0,,0,0.,4.8,0.,4.8,,0,0.,4.8,0.,4.8
1981-08-28 18:22:02.190 ,7,0,,0,1.,4.8,0.,4.8,,0,0.,4.8,0.,4.8
1981-08-28 18:22:06.990 ,7,0,,0,1.,4.8,0.,4.8,,0,0.,4.8,0.,4.8
1981-08-28 18:22:11.790 ,7,0,,0,9.,4.8,0.,4.8,,0,0.,4.8,0.,4.8
1981-08-28 18:22:16.590 ,7,0,,0,0.,4.8,0.,4.8,,0,0.,4.8,0.,4.8
1981-08-28 18:22:21.390 ,7,0,,0,0.,4.8,0.,4.8,,0,0.,4.8,0.,4.8
1981-08-28 18:22:26.190 ,7,0,,0,0.,4.8,0.,4.8,,0,0.,4.8,0.,4.8
1981-08-28 18:22:30.990 ,7,0,,0,0.,4.8,0.,4.8,,0,0.,4.8,0.,4.8
1981-08-28 18:22:35.790 ,7,0,,0,2.,4.8,0.,4.8,,0,0.,4.8,0.,4.8
1981-08-28 18:22:40.590 ,7,0,,0,7.,4.8,0.,4.8,,0,0.,4.8,0.,4.8
1981-08-28 18:22:45.390 ,7,0,,0,11.,4.8,0.,4.8,,0,0.,4.8,0.,4.8
1981-08-28 18:22:50.190 ,7,0,,0,6.,4.8,0.,4.8,,0,0.,4.8,0.,4.8
1981-08-28 18:22:54.990 ,7,0,,0,6.,4.8,0.,4.8,,0,0.,4.8,0.,4.8
1981-08-28 18:22:59.790 ,7,0,,0,13.,4.8,0.,4.8,,0,0.,4.8,0.,4.8
1981-08-28 18:23:04.590 ,7,0,,0,0.,4.8,0.,4.8,,0,0.,4.8,0.,4.8
1981-08-28 18:23:09.390 ,7,0,,0,0.,4.8,0.,4.8,,0,0.,4.8,0.,4.8
1981-08-28 18:23:14.190 ,6,0,,0,0.,4.8,0.,4.8,,0,0.,4.8,0.,4.8
1981-08-28 18:23:18.990 ,6,0,,0,0.,4.8,0.,4.8,,0,0.,4.8,0.,4.8
1981-08-28 18:23:23.790 ,6,0,,0,0.,4.8,0.,4.8,,0,0.,4.8,0.,4.8
1981-08-28 18:23:28.590 ,6,0,,0,0.,4.8,0.,4.8,,0,0.,4.8,0.,4.8
1981-08-28 18:23:33.390 ,6,0,,0,1.,4.8,0.,4.8,,0,0.,4.8,0.,4.8
1981-08-28 18:23:38.190 ,6,0,,0,1.,4.8,0.,4.8,,0,0.,4.8,0.,4.8
1981-08-28 18:23:42.990 ,6,0,,0,1.,4.8,0.,4.8,,0,0.,4.8,0.,4.8
1981-08-28 18:23:47.790 ,6,0,,0,0.,4.8,0.,4.8,,0,0.,4.8,0.,4.8
1981-08-28 18:23:52.590 ,6,0,,0,0.,4.8,1.,4.8,,0,0.,4.8,0.,4.8
1981-08-28 18:23:57.390 ,6,0,,0,0.,4.8,0.,4.8,,0,0.,4.8,0.,4.8
1981-08-28 18:24:02.190 ,5,0,,0,1.,4.8,0.,4.8,,0,0.,4.8,0.,4.8
1981-08-28 18:24:06.990 ,5,0,,0,0.,4.8,0.,4.8,,0,0.,4.8,0.,4.8
1981-08-28 18:24:11.790 ,5,0,,0,1.,4.8,0.,4.8,,0,0.,4.8,0.,4.8
1981-08-28 18:24:16.590 ,5,0,,0,0.,4.8,0.,4.8,,0,0.,4.8,0.,4.8
1981-08-28 18:24:21.390 ,5,0,,0,1.,4.8,0.,4.8,,0,0.,4.8,0.,4.8
1981-08-28 18:24:26.190 ,5,0,,0,0.,4.8,0.,4.8,,0,0.,4.8,0.,4.8
1981-08-28 18:24:30.990 ,5,0,,0,0.,4.8,0.,4.8,,0,0.,4.8,0.,4.8
1981-08-28 18:24:35.790 ,5,0,,0,1.,4.8,0.,4.8,,0,0.,4.8,0.,4.8
1981-08-28 18:24:40.590 ,5,0,,0,0.,4.8,0.,4.8,,0,0.,4.8,0.,4.8
1981-08-28 18:24:45.390 ,5,0,,0,0.,4.8,0.,4.8,,0,0.,4.8,0.,4.8
1981-08-28 18:24:50.190 ,4,0,,0,0.,4.8,0.,4.8,,0,0.,4.8,0.,4.8
1981-08-28 18:24:54.990 ,4,0,,0,0.,4.8,0.,4.8,,0,0.,4.8,0.,4.8
1981-08-28 18:24:59.790 ,4,0,,0,0.,4.8,0.,4.8,,0,0.,4.8,0.,4.8
1981-08-28 18:25:04.590 ,4,0,,0,0.,4.8,0.,4.8,,0,0.,4.8,0.,4.8
1981-08-28 18:25:09.390 ,4,0,,0,0.,4.8,0.,4.8,,0,0.,4.8,0.,4.8
1981-08-28 18:25:14.190 ,4,0,,0,1.,4.8,0.,4.8,,0,0.,4.8,0.,4.8
1981-08-28 18:25:18.990 ,4,0,,0,0.,4.8,0.,4.8,,0,0.,4.8,0.,4.8
1981-08-28 18:25:23.790 ,4,0,,0,0.,4.8,0.,4.8,,0,0.,4.8,0.,4.8
1981-08-28 18:25:28.590 ,4,0,,0,0.,4.8,0.,4.8,,0,0.,4.8,0.,4.8
1981-08-28 18:25:33.390 ,4,0,,0,0.,4.8,0.,4.8,,0,0.,4.8,0.,4.8
1981-08-28 18:25:38.190 ,3,0,,0,0.,4.8,0.,4.8,,0,0.,4.8,0.,4.8
1981-08-28 18:25:42.990 ,3,0,,0,0.,4.8,0.,4.8,,0,0.,4.8,0.,4.8
1981-08-28 18:25:47.790 ,3,0,,0,0.,4.8,0.,4.8,,0,0.,4.8,0.,4.8
1981-08-28 18:25:52.590 ,3,0,,0,0.,4.8,0.,4.8,,0,0.,4.8,0.,4.8
1981-08-28 18:25:57.390 ,3,0,,0,1.,4.8,0.,4.8,,0,0.,4.8,0.,4.8
1981-08-28 18:26:02.190 ,3,0,,0,0.,4.8,0.,4.8,,0,0.,4.8,0.,4.8
1981-08-28 18:26:06.990 ,3,0,,0,3.,4.8,0.,4.8,,0,0.,4.8,0.,4.8
1981-08-28 18:26:11.790 ,3,0,,0,0.,4.8,0.,4.8,,0,0.,4.8,0.,4.8
1981-08-28 18:26:16.590 ,3,0,,0,0.,4.8,0.,4.8,,0,0.,4.8,0.,4.8
1981-08-28 18:26:21.390 ,3,0,,0,0.,4.8,0.,4.8,,0,0.,4.8,0.,4.8
1981-08-28 18:26:26.190 ,2,0,,0,0.,4.8,0.,4.8,,0,0.,4.8,0.,4.8
1981-08-28 18:26:30.990 ,2,0,,0,0.,4.8,0.,4.8,,0,0.,4.8,0.,4.8
1981-08-28 18:26:35.790 ,2,0,,0,0.,4.8,0.,4.8,,0,0.,4.8,0.,4.8
1981-08-28 18:26:40.590 ,2,0,,0,0.,4.8,0.,4.8,,0,0.,4.8,0.,4.8
1981-08-28 18:26:45.390 ,2,0,,0,0.,4.8,0.,4.8,,0,0.,4.8,0.,4.8
1981-08-28 18:26:50.190 ,2,0,,0,2.,4.8,0.,4.8,,0,0.,4.8,0.,4.8
1981-08-28 18:26:54.990 ,2,0,,0,0.,4.8,0.,4.8,,0,0.,4.8,0.,4.8
1981-08-28 18:26:59.790 ,2,0,,0,0.,4.8,0.,4.8,,0,0.,4.8,0.,4.8
1981-08-28 18:27:04.590 ,2,0,,0,0.,4.8,0.,4.8,,0,0.,4.8,0.,4.8
1981-08-28 18:27:09.390 ,2,0,,0,0.,4.8,0.,4.8,,0,0.,4.8,0.,4.8
1981-08-28 18:27:14.190 ,1,0,,0,0.,4.8,0.,4.8,,0,1.,4.8,0.,4.8
1981-08-28 18:27:18.990 ,1,0,,0,0.,4.8,0.,4.8,,0,0.,4.8,0.,4.8
1981-08-28 18:27:23.790 ,1,0,,0,0.,4.8,0.,4.8,,0,0.,4.8,0.,4.8
1981-08-28 18:27:28.590 ,1,0,,0,0.,4.8,0.,4.8,,0,0.,4.8,0.,4.8
1981-08-28 18:27:33.390 ,1,0,,0,1.,4.8,0.,4.8,,0,0.,4.8,0.,4.8
1981-08-28 18:27:38.190 ,1,0,,0,0.,4.8,0.,4.8,,0,0.,4.8,0.,4.8
1981-08-28 18:27:42.990 ,1,0,,0,1.,4.8,0.,4.8,,0,0.,4.8,0.,4.8
1981-08-28 18:27:47.790 ,1,0,,0,0.,4.8,0.,4.8,,0,0.,4.8,0.,4.8
1981-08-28 18:27:52.590 ,1,0,,0,0.,4.8,0.,4.8,,0,0.,4.8,0.,4.8
1981-08-28 18:27:57.390 ,1,0,,0,0.,4.8,0.,4.8,,0,0.,4.8,0.,4.8
1981-08-28 18:28:02.190 ,0,0,,0,0.,4.8,0.,4.8,,0,0.,4.8,0.,4.8
1981-08-28 18:28:06.990 ,0,0,,0,0.,4.8,0.,4.8,,0,0.,4.8,0.,4.8
1981-08-28 18:28:11.790 ,0,0,,0,0.,4.8,0.,4.8,,0,0.,4.8,0.,4.8
1981-08-28 18:28:16.590 ,0,0,,0,0.,4.8,0.,4.8,,0,0.,4.8,0.,4.8
1981-08-28 18:28:21.390 ,0,0,,0,1.,4.8,0.,4.8,,0,0.,4.8,0.,4.8
1981-08-28 18:28:26.190 ,0,0,,0,1.,4.8,0.,4.8,,0,0.,4.8,0.,4.8
1981-08-28 18:28:30.990 ,0,0,,0,2.,4.8,0.,4.8,,0,0.,4.8,0.,4.8
1981-08-28 18:28:35.790 ,0,0,,0,0.,4.8,0.,4.8,,0,0.,4.8,0.,4.8
1981-08-28 18:28:40.590 ,0,0,,0,0.,4.8,0.,4.8,,0,0.,4.8,0.,4.8
1981-08-28 18:28:45.390 ,0,0,,0,0.,4.8,0.,4.8,,0,0.,4.8,0.,4.8
1981-08-28 18:28:50.190 ,0,0,,0,0.,4.8,0.,4.8,,0,0.,4.8,0.,4.8
1981-08-28 18:28:54.990 ,0,0,,0,0.,4.8,0.,4.8,,0,0.,4.8,0.,4.8
1981-08-28 18:28:59.790 ,0,0,,0,0.,4.8,0.,4.8,,0,0.,4.8,0.,4.8
1981-08-28 18:29:04.590 ,0,0,,0,0.,4.8,0.,4.8,,0,0.,4.8,0.,4.8
1981-08-28 18:29:09.390 ,0,0,,0,0.,4.8,0.,4.8,,0,0.,4.8,0.,4.8
1981-08-28 18:29:14.190 ,0,0,,0,0.,4.8,0.,4.8,,0,0.,4.8,0.,4.8
1981-08-28 18:29:18.990 ,0,0,,0,0.,4.8,0.,4.8,,0,0.,4.8,0.,4.8
1981-08-28 18:29:23.790 ,0,0,,0,0.,4.8,0.,4.8,,0,0.,4.8,0.,4.8
1981-08-28 18:29:28.590 ,0,0,,0,0.,4.8,0.,4.8,,0,0.,4.8,0.,4.8
1981-08-28 18:29:33.390 ,0,0,,0,0.,4.8,0.,4.8,,0,0.,4.8,0.,4.8
1981-08-28 18:29:38.190 ,1,0,,0,0.,4.8,0.,4.8,,0,0.,4.8,0.,4.8
1981-08-28 18:29:42.990 ,1,0,,0,0.,4.8,0.,4.8,,0,0.,4.8,0.,4.8
1981-08-28 18:29:47.790 ,1,0,,0,0.,4.8,0.,4.8,,0,0.,4.8,0.,4.8
1981-08-28 18:29:52.590 ,1,0,,0,0.,4.8,0.,4.8,,0,0.,4.8,0.,4.8
1981-08-28 18:29:57.390 ,1,0,,0,0.,4.8,0.,4.8,,0,0.,4.8,0.,4.8
1981-08-28 18:30:02.190 ,1,0,,0,1.,4.8,0.,4.8,,0,0.,4.8,0.,4.8
1981-08-28 18:30:06.990 ,1,0,,0,0.,4.8,0.,4.8,,0,0.,4.8,0.,4.8
1981-08-28 18:30:11.790 ,1,0,,0,2.,4.8,0.,4.8,,0,0.,4.8,0.,4.8